Location: St. Louis
(38.6270°N, 90.1994°W)
Time: 11:57:47
(UTC-06:00)

A-11 Canister half - Pass Details

Date: 11 December 2021
Orbit: 1524 x 1684 km, 47.3° (Epoch: 25 January)

Event Time Altitude Azimuth Distance (km) Brightness Sun altitude
Rises 00:28:46 0° 253° (WSW) 4,909 - -72.7°
Reaches altitude 10° 00:31:58 10° 256° (WSW) 3,933 - -72.4°
Maximum altitude 00:42:04 67° 339° (NNW) 1,800 - -71.3°
Drops below altitude 10° 00:52:10 10° 61° (ENE) 3,927 - -70.1°
Exits shadow 00:53:48 - 63° (ENE) 4,423 11.6 -69.9°
Sets 00:55:21 0° 65° (ENE) 4,902 11.9 -69.6°
